DW2786 Weather Reports


time (UTC)temp
F
wind
direction
speed
knots
gust
knots
rain 1hr
in
rain 24hr
in
rain mn
in
humidity
%
barometer
mb
20260504081810 47 205 0.0 1.7 0.00 0.00 0.00 81 1015.8
20260504081604 47 205 0.0 1.7 0.00 0.00 0.00 81 1015.9
20260504081537 47 0 0.0 1.7 0.00 0.00 0.00 80 1013.5
20260504081320 47 205 0.9 1.7 0.00 0.00 0.00 81 1015.8
20260504080831 47 173 0.9 1.7 0.00 0.00 0.00 81 1015.8
20260504080319 47 172 0.0 1.7 0.00 0.00 0.00 80 1015.9
20260504070318 49 197 0.0 1.7 0.00 0.00 0.00 77 1016.2
20260504050328 47 179 1.7 3.5 0.00 0.00 0.00 74 1017.1
20260504045810 47 191 0.9 1.7 0.00 0.00 0.00 74 1017.0
20260504045317 47 193 0.0 0.0 0.00 0.00 0.00 74 1017.0
20260504044856 47 193 0.0 0.0 0.00 0.00 0.00 74 1016.9
20260504044553 47 193 0.0 0.0 0.00 0.00 0.00 74 1017.1
20260504044539 47 0 0.0 0.0 0.00 0.00 0.00 74 1014.6
20260504044317 47 205 0.0 0.0 0.00 0.00 0.00 74 1016.9
20260504043849 47 212 0.0 0.0 0.00 0.00 0.00 74 1016.8
20260504043338 47 215 0.0 0.0 0.00 0.00 0.00 74 1016.9
20260504043115 47 215 0.0 0.0 0.00 0.00 0.00 74 1017.0
20260504043036 47 0 0.0 0.0 0.00 0.00 0.00 73 1014.5
20260504042826 47 215 0.0 0.0 0.00 0.00 0.00 74 1016.7
20260504042314 47 207 0.0 0.0 0.00 0.00 0.00 74 1016.8
20260504041825 47 207 0.0 0.0 0.00 0.00 0.00 73 1016.6
20260504041539 47 0 0.0 0.0 0.00 0.00 0.00 73 1014.5
20260504041537 47 207 0.0 0.0 0.00 0.00 0.00 73 1017.0
20260504041333 47 223 0.0 0.0 0.00 0.00 0.00 73 1016.7
20260504040816 47 223 0.0 0.0 0.00 0.00 0.00 73 1016.6
20260504040326 48 223 0.0 0.0 0.00 0.00 0.00 73 1016.7
20260504040100 47 0 0.0 1.7 0.00 0.00 0.00 72 1014.5
20260504040024 47 223 0.0 0.0 0.00 0.00 0.00 73 1017.0
20260504035836 48 223 0.0 1.7 0.00 0.00 0.00 73 1016.8
20260504035317 48 223 0.0 1.7 0.00 0.00 0.00 72 1016.8
20260504034855 48 223 0.9 1.7 0.00 0.00 0.00 72 1016.8
20260504034550 47 223 0.9 1.7 0.00 0.00 0.00 72 1017.2
20260504034538 47 223 0.9 1.7 0.00 0.00 0.00 71 1014.7
20260504034316 48 223 0.9 1.7 0.00 0.00 0.00 71 1016.9
20260504033827 48 223 0.9 1.7 0.00 0.00 0.00 70 1017.0
20260504033317 48 223 0.9 1.7 0.00 0.00 0.00 69 1016.9
20260504033037 48 0 0.9 1.7 0.00 0.00 0.00 68 1014.7
20260504033033 48 223 0.9 1.7 0.00 0.00 0.00 69 1017.3
20260504032828 48 223 0.9 1.7 0.00 0.00 0.00 68 1016.8
20260504032310 48 223 0.9 1.7 0.00 0.00 0.00 68 1016.9
20260504031817 49 223 0.0 0.9 0.00 0.00 0.00 67 1016.8
20260504031537 48 0 0.0 1.7 0.00 0.00 0.00 66 1014.7
20260504031517 48 223 0.0 0.9 0.00 0.00 0.00 67 1017.1
20260504031327 49 223 0.0 1.7 0.00 0.00 0.00 67 1016.8
20260504030815 49 223 0.9 1.7 0.00 0.00 0.00 66 1016.8
20260504030321 49 223 0.0 1.7 0.00 0.00 0.00 65 1016.7
20260504030055 49 223 0.0 1.7 0.00 0.00 0.00 65 1017.2
20260504030038 49 0 0.0 1.7 0.00 0.00 0.00 65 1014.6
20260504025825 50 223 0.9 1.7 0.00 0.00 0.00 65 1016.8
20260504025334 50 223 0.0 0.9 0.00 0.00 0.00 65 1016.8
20260504024850 50 223 0.0 1.7 0.00 0.00 0.00 64 1016.8
20260504024539 50 223 0.0 1.7 0.00 0.00 0.00 64 1017.1
20260504024534 50 0 0.0 1.7 0.00 0.00 0.00 63 1014.5
20260504024311 50 223 0.0 1.7 0.00 0.00 0.00 63 1016.8
20260504023819 50 223 0.9 1.7 0.00 0.00 0.00 62 1016.7
20260504023310 51 223 0.0 0.0 0.00 0.00 0.00 60 1016.6
20260504023039 50 0 0.0 0.0 0.00 0.00 0.00 58 1014.5
20260504023012 50 223 0.0 0.0 0.00 0.00 0.00 58 1016.9
20260504022817 51 223 0.0 0.0 0.00 0.00 0.00 57 1016.6
20260504022321 51 223 0.0 0.0 0.00 0.00 0.00 57 1016.5
20260504021835 52 223 0.0 1.7 0.00 0.00 0.00 57 1016.5
20260504021545 51 223 0.0 1.7 0.00 0.00 0.00 57 1016.8
20260504021539 51 0 0.0 1.7 0.00 0.00 0.00 57 1014.3
20260504021318 52 223 0.0 1.7 0.00 0.00 0.00 57 1016.4
20260504020834 52 223 0.9 2.6 0.00 0.00 0.00 57 1016.4
20260504020317 53 223 0.9 2.6 0.00 0.00 0.00 56 1016.4
20260504020107 52 197 0.9 2.6 0.00 0.00 0.00 58 1016.8
20260504020037 52 197 0.9 2.6 0.00 0.00 0.00 57 1014.2
20260504015826 53 238 1.7 2.6 0.00 0.00 0.00 58 1016.4
20260504015314 53 238 1.7 2.6 0.00 0.00 0.00 56 1016.4
20260504014824 53 260 0.0 2.6 0.00 0.00 0.00 54 1016.4
20260504014542 53 260 0.9 5.2 0.00 0.00 0.00 55 1014.3
20260504014537 53 260 0.9 4.3 0.00 0.00 0.00 55 1016.7
20260504014335 54 202 1.7 4.3 0.00 0.00 0.00 55 1016.4
20260504013816 54 194 0.9 3.5 0.00 0.00 0.00 55 1016.3
20260504013347 54 305 1.7 3.5 0.00 0.00 0.00 55 1016.3
20260504013034 53 198 0.0 12.2 0.00 0.00 0.00 52 1014.4
20260504013006 53 198 0.0 10.4 0.00 0.00 0.00 51 1016.8
20260504012815 53 306 0.0 10.4 0.00 0.00 0.00 53 1016.6
20260504012326 53 350 3.5 10.4 0.00 0.00 0.00 52 1016.7
20260504011828 53 212 1.7 2.6 0.00 0.00 0.00 58 1016.9
20260504011557 53 197 0.9 2.6 0.00 0.00 0.00 57 1017.2
20260504011541 53 197 0.9 2.6 0.00 0.00 0.00 56 1014.6
20260504011316 54 316 0.9 1.7 0.00 0.00 0.00 57 1016.8
20260504010827 54 208 0.0 0.0 0.00 0.00 0.00 56 1016.8
20260504010309 54 208 0.0 0.0 0.00 0.00 0.00 55 1016.6
20260504010055 54 208 0.0 0.0 0.00 0.00 0.00 56 1016.9
20260504010037 54 0 0.0 0.0 0.00 0.00 0.00 55 1014.5
20260504005818 54 208 0.0 0.0 0.00 0.00 0.00 55 1016.6
20260504005355 54 208 0.0 0.0 0.00 0.00 0.00 54 1016.6
20260504004816 54 208 0.0 0.0 0.00 0.00 0.00 52 1016.4
20260504004544 54 0 0.0 0.0 0.00 0.00 0.00 53 1014.3
20260504004509 54 208 0.0 0.0 0.00 0.00 0.00 54 1016.9
20260504004325 55 208 0.0 0.0 0.00 0.00 0.00 54 1016.5
20260504003837 55 208 0.0 0.0 0.00 0.00 0.00 52 1016.6
20260504003326 55 208 0.0 0.0 0.00 0.00 0.00 53 1016.6
20260504003037 55 208 0.0 0.0 0.00 0.00 0.00 51 1016.9
20260504002810 56 208 0.0 0.0 0.00 0.00 0.00 52 1016.6
20260504002321 56 208 0.0 0.0 0.00 0.00 0.00 53 1016.5
20260504001831 57 208 0.0 0.0 0.00 0.00 0.00 51 1016.5
20260504001601 56 208 0.0 0.0 0.00 0.00 0.00 51 1016.9
20260504001537 57 0 0.0 0.0 0.00 0.00 0.00 50 1014.3
20260504001319 57 208 0.0 0.0 0.00 0.00 0.00 51 1016.5
20260504000809 58 208 0.0 0.9 0.00 0.00 0.00 51 1016.6
20260504000318 59 208 0.0 1.7 0.00 0.00 0.00 48 1016.4
20260504000042 58 208 0.0 1.7 0.00 0.00 0.00 49 1016.8
20260504000036 58 0 0.0 1.7 0.00 0.00 0.00 49 1014.2
20260503235821 59 208 0.9 1.7 0.00 0.00 0.00 49 1016.4
20260503235331 59 208 0.0 1.7 0.00 0.00 0.00 41 1016.3
20260503234821 60 208 0.0 0.0 0.00 0.00 0.00 42 1016.3
20260503234540 59 0 0.0 1.7 0.00 0.00 0.00 40 1014.1
20260503234504 59 208 0.0 0.0 0.00 0.00 0.00 41 1016.7
20260503234314 60 208 0.0 1.7 0.00 0.00 0.00 41 1016.4
20260503233823 60 208 0.0 3.5 0.00 0.00 0.00 38 1016.5
20260503233334 60 244 0.9 3.5 0.00 0.00 0.00 40 1016.6
20260503233040 60 0 0.0 2.6 0.00 0.00 0.00 39 1014.4
20260503233022 60 184 0.0 2.6 0.00 0.00 0.00 40 1017.0
20260503232824 60 184 0.0 2.6 0.00 0.00 0.00 39 1016.6
20260503232331 61 184 0.9 2.6 0.00 0.00 0.00 39 1016.6
20260503231815 61 223 0.0 1.7 0.00 0.00 0.00 37 1016.7
20260503231602 60 223 0.0 1.7 0.00 0.00 0.00 37 1017.2
20260503231539 60 0 0.0 2.6 0.00 0.00 0.00 36 1014.6
20260503231322 61 223 0.0 2.6 0.00 0.00 0.00 37 1017.0
20260503230814 61 213 0.9 2.6 0.00 0.00 0.00 37 1017.0
20260503230317 61 195 0.9 2.6 0.00 0.00 0.00 37 1017.0
20260503230058 60 239 0.9 2.6 0.00 0.00 0.00 35 1017.3
20260503230037 60 0 0.9 4.3 0.00 0.00 0.00 34 1014.7
20260503225822 61 254 0.9 4.3 0.00 0.00 0.00 36 1017.0
20260503225311 61 132 0.9 4.3 0.00 0.00 0.00 36 1017.0
20260503224820 61 184 0.9 5.2 0.00 0.00 0.00 35 1017.1
20260503224535 61 11 1.7 5.2 0.00 0.00 0.00 38 1014.8
20260503224526 61 5 1.7 5.2 0.00 0.00 0.00 38 1017.5
20260503224330 61 131 1.7 5.2 0.00 0.00 0.00 36 1017.1
20260503223811 62 145 0.0 4.3 0.00 0.00 0.00 35 1017.1
20260503223349 62 194 2.6 4.3 0.00 0.00 0.00 35 1017.1
20260503223100 61 165 0.0 5.2 0.00 0.00 0.00 35 1017.5
20260503223036 61 165 0.0 5.2 0.00 0.00 0.00 35 1014.9
20260503222809 62 148 0.9 5.2 0.00 0.00 0.00 35 1017.1
20260503222320 62 168 0.9 5.2 0.00 0.00 0.00 35 1017.1
20260503221830 62 216 0.9 4.3 0.00 0.00 0.00 35 1017.2
20260503221542 61 270 0.9 4.3 0.00 0.00 0.00 34 1014.9
20260503221535 61 302 0.9 4.3 0.00 0.00 0.00 34 1017.6
20260503221339 62 165 0.0 4.3 0.00 0.00 0.00 36 1017.1
20260503220830 62 189 1.7 4.3 0.00 0.00 0.00 35 1017.1
20260503220338 62 280 1.7 7.8 0.00 0.00 0.00 33 1017.2
20260503220039 61 140 2.6 7.8 0.00 0.00 0.00 33 1015.0
20260503220035 61 140 1.7 7.8 0.00 0.00 0.00 33 1017.6
20260503215845 62 204 3.5 7.8 0.00 0.00 0.00 33 1017.2
20260503215335 62 337 1.7 5.2 0.00 0.00 0.00 33 1017.0
20260503214845 62 167 1.7 5.2 0.00 0.00 0.00 35 1017.2
20260503214545 61 321 1.7 7.8 0.00 0.00 0.00 34 1017.6
20260503214537 61 304 1.7 7.8 0.00 0.00 0.00 33 1015.0
20260503214334 62 187 1.7 7.8 0.00 0.00 0.00 35 1017.2
20260503213818 62 328 0.9 5.2 0.00 0.00 0.00 35 1017.1
20260503213326 62 131 0.0 4.3 0.00 0.00 0.00 33 1017.1
20260503213037 61 150 0.9 4.3 0.00 0.00 0.00 35 1015.0
20260503213011 61 153 0.9 4.3 0.00 0.00 0.00 36 1017.6
20260503212817 62 273 1.7 4.3 0.00 0.00 0.00 36 1017.2
20260503212318 62 88 0.9 5.2 0.00 0.00 0.00 33 1017.2
20260503211855 62 189 1.7 5.2 0.00 0.00 0.00 36 1017.1
20260503211537 61 0 2.6 9.6 0.00 0.00 0.00 33 1014.8
20260503211535 61 179 2.6 8.7 0.00 0.00 0.00 34 1017.6
20260503211317 62 104 2.6 8.7 0.00 0.00 0.00 34 1017.1
20260503210826 62 148 3.5 8.7 0.00 0.00 0.00 32 1017.1
20260503210334 62 143 1.7 5.2 0.00 0.00 0.00 32 1017.2
20260503210052 62 360 1.7 5.2 0.00 0.00 0.00 32 1017.6
20260503210036 62 360 1.7 5.2 0.00 0.00 0.00 32 1015.0
20260503205821 62 193 2.6 5.2 0.00 0.00 0.00 34 1017.2
20260503205309 62 161 2.6 5.2 0.00 0.00 0.00 32 1017.2
20260503204820 62 269 2.6 7.0 0.00 0.00 0.00 33 1017.4
20260503204544 62 192 1.7 7.0 0.00 0.00 0.00 33 1017.9
20260503204539 62 207 1.7 7.0 0.00 0.00 0.00 32 1015.2
20260503204351 63 158 2.6 7.0 0.00 0.00 0.00 32 1017.4
20260503203814 63 300 1.7 7.0 0.00 0.00 0.00 32 1017.4
20260503203323 63 26 2.6 4.3 0.00 0.00 0.00 33 1017.4
20260503203100 63 227 2.6 4.3 0.00 0.00 0.00 32 1017.8
20260503203037 63 261 1.7 5.2 0.00 0.00 0.00 31 1015.2
20260503202832 64 348 1.7 5.2 0.00 0.00 0.00 31 1017.5
20260503202319 64 167 1.7 3.5 0.00 0.00 0.00 32 1017.6
20260503201809 64 15 0.0 3.5 0.00 0.00 0.00 35 1017.6
20260503201538 63 17 0.9 2.6 0.00 0.00 0.00 32 1015.5
20260503201515 63 10 0.9 2.6 0.00 0.00 0.00 32 1018.2
20260503201319 64 156 0.9 2.6 0.00 0.00 0.00 34 1017.8
20260503200821 64 115 0.9 8.7 0.00 0.00 0.00 33 1017.8
20260503200309 64 219 2.6 8.7 0.00 0.00 0.00 32 1018.0
20260503200038 64 207 1.7 9.6 0.00 0.00 0.00 30 1015.8
20260503195815 64 170 1.7 9.6 0.00 0.00 0.00 31 1018.2
20260503195323 65 205 5.2 9.6 0.00 0.00 0.00 31 1018.4
20260503194832 65 164 1.7 5.2 0.00 0.00 0.00 33 1018.4
20260503194538 64 0 0.9 6.1 0.00 0.00 0.00 36 1016.2
20260503194313 64 355 0.9 5.2 0.00 0.00 0.00 33 1018.6
20260503193847 64 207 2.6 5.2 0.00 0.00 0.00 33 1018.7
20260503193335 64 272 0.9 6.1 0.00 0.00 0.00 37 1018.7
20260503193042 63 164 1.7 6.1 0.00 0.00 0.00 33 1016.4
20260503193031 63 149 1.7 6.1 0.00 0.00 0.00 33 1019.2
20260503192816 63 164 2.6 6.1 0.00 0.00 0.00 32 1018.8
20260503192325 63 235 1.7 12.2 0.00 0.00 0.00 34 1018.8
20260503191816 63 228 6.1 12.2 0.00 0.00 0.00 37 1018.8
20260503191534 63 125 1.7 11.3 0.00 0.00 0.00 31 1016.7
20260503191520 63 126 2.6 6.1 0.00 0.00 0.00 31 1019.5
20260503191325 64 134 2.6 11.3 0.00 0.00 0.00 32 1019.1
20260503190833 63 293 2.6 11.3 0.00 0.00 0.00 34 1019.4
20260503190315 63 40 1.7 7.8 0.00 0.00 0.00 31 1019.4
20260503190041 63 54 1.7 7.8 0.00 0.00 0.00 31 1017.0
20260503190013 63 341 1.7 7.8 0.00 0.00 0.00 31 1019.9
20260503185844 64 180 1.7 7.8 0.00 0.00 0.00 32 1019.4
20260503185314 64 307 1.7 4.3 0.00 0.00 0.00 36 1019.4
20260503184841 63 186 1.7 5.2 0.00 0.00 0.00 37 1019.6
20260503184537 63 210 0.9 7.8 0.00 0.00 0.00 32 1017.4
20260503184501 63 224 0.9 7.0 0.00 0.00 0.00 32 1020.1
20260503184329 63 143 1.7 7.0 0.00 0.00 0.00 33 1019.8
20260503183818 63 234 1.7 7.8 0.00 0.00 0.00 33 1019.9
20260503183326 63 360 0.9 7.0 0.00 0.00 0.00 33 1019.9
20260503183053 62 223 3.5 7.0 0.00 0.00 0.00 33 1017.4
20260503183038 62 228 3.5 7.0 0.00 0.00 0.00 34 1020.3
20260503182810 63 162 2.6 5.2 0.00 0.00 0.00 35 1019.9
20260503182320 63 184 1.7 5.2 0.00 0.00 0.00 36 1019.9
20260503181854 62 312 1.7 5.2 0.00 0.00 0.00 34 1020.1
20260503181559 62 37 2.6 5.2 0.00 0.00 0.00 33 1020.6
20260503181540 62 298 1.7 5.2 0.00 0.00 0.00 34 1017.8
20260503181344 63 165 2.6 5.2 0.00 0.00 0.00 35 1020.1
20260503180826 63 153 2.6 5.2 0.00 0.00 0.00 34 1020.1
20260503180314 62 187 2.6 7.8 0.00 0.00 0.00 33 1020.1
20260503180038 62 175 2.6 7.8 0.00 0.00 0.00 34 1017.8
20260503180015 62 309 2.6 7.8 0.00 0.00 0.00 36 1020.7
20260503175826 62 301 2.6 7.8 0.00 0.00 0.00 41 1020.2
20260503175335 62 209 1.7 4.3 0.00 0.00 0.00 34 1020.3
20260503174824 62 174 0.9 3.5 0.00 0.00 0.00 37 1020.2
20260503174538 61 0 0.0 5.2 0.00 0.00 0.00 36 1017.9
20260503174528 61 51 0.0 3.5 0.00 0.00 0.00 37 1020.7
20260503174334 62 22 0.9 3.5 0.00 0.00 0.00 34 1020.2
20260503173822 62 349 0.9 5.2 0.00 0.00 0.00 37 1020.2
20260503173331 62 346 1.7 3.5 0.00 0.00 0.00 39 1020.3
20260503173050 61 15 0.0 4.3 0.00 0.00 0.00 40 1021.0
20260503173039 61 175 0.0 4.3 0.00 0.00 0.00 39 1018.1
20260503172815 62 171 0.9 4.3 0.00 0.00 0.00 35 1020.4
20260503172326 62 17 2.6 4.3 0.00 0.00 0.00 36 1020.5
20260503171811 62 342 0.9 7.0 0.00 0.00 0.00 39 1020.5
20260503171550 61 350 2.6 7.0 0.00 0.00 0.00 35 1021.1
20260503171539 61 328 2.6 7.0 0.00 0.00 0.00 33 1018.3
20260503171321 62 27 3.5 7.0 0.00 0.00 0.00 33 1020.6
20260503170812 62 55 2.6 6.1 0.00 0.00 0.00 36 1020.7
20260503170321 63 142 2.6 6.1 0.00 0.00 0.00 34 1020.7
20260503150841 58 252 3.5 7.8 0.00 0.00 0.00 44 1022.0
20260503150330 57 192 0.9 5.2 0.00 0.00 0.00 44 1021.9
20260503140313 54 182 1.7 4.3 0.00 0.00 0.00 54 1022.2
20260503131324 47 159 1.7 3.5 0.00 0.00 0.00 84 1022.2
20260503130832 46 309 1.7 4.3 0.00 0.00 0.00 86 1022.1
20260503130313 45 161 2.6 4.3 0.00 0.00 0.00 89 1022.1
20260503110816 30 233 0.9 1.7 0.00 0.00 0.00 86 1021.2
20260503110324 30 242 0.0 0.9 0.00 0.00 0.00 86 1021.2